Weather in Panino

Russia / Ivanovo Oblast     57°17′18″N   41°06′18″E
temp.,
°C
wind,
m/s
gust,
m/s
humid.,
%
clouds,
%
prec.,
mm/h
press.,
hPa
HPBL,
m
8 august, mon
mon800:00+17n4799100 0.1 1019209
03:00+15n3597100 0.6 1020163
06:00+16nnw2395100 0.3 1021159
09:00+16n249597 0.9 1022195
12:00+20nne337662 0.1 1022636
15:00+23n325833 0.1 10211103
18:00+23nnw335729 0.0 10201126
21:00+16n498265 0.0 1021219
9 august, tue
tue900:00+14nne349430 0.0 102276
03:00+13n239687 0.2 102258
06:00+14n2389100 0.3 1022112
09:00+18nne3575100 0.5 1021435
12:00+15n2495100 4.8 1021177
15:00+16n2397100 10.7 1021208
18:00+16n2395100 0.9 1021227
21:00+14n349674 0.9 102172
10 august, wed
wed1000:00+13n25974 0.0 1021106
03:00+12n369673 0.0 1021125
06:00+12n26935 0.0 1021159
09:00+17n46722 0.0 1021514
12:00+22n454917 0.0 10211615
15:00+23nnw4439100 0.0 10202486
18:00+18nnw3761100 0.1 1021197
21:00+14n33790 0.1 102228
11 august, thu
thu1100:00+12n34870 0.0 102358
03:00+10nw239324 0.0 102438
06:00+11nw35840 0.0 1025131
09:00+17nw34595 0.0 1025532
12:00+21nw33435 0.0 10251553
15:00+23wnw33355 0.0 10241866
18:00+22w24425 0.0 1023382
21:00+15w336532 0.0 102336
12 august, fri
fri1200:00+14wsw226596 0.0 102431
03:00+13wsw3766100 0.0 1024123
06:00+14wsw3966100 0.0 1024206
09:00+20w475175 0.0 1024456
12:00+24w563911 0.0 10231384
15:00+26w563570 0.0 10221599
18:00+24w464464 0.0 1022753
21:00+18w34675 0.0 102361